FW1436 Weather Reports


time (UTC)temp
C
wind
direction
speed
KPH
gust
KPH
rain 1hr
cm
rain 24hr
cm
rain mn
cm
humidity
%
barometer
mb
20260902124658 32 276 4.8 14.5 0.00 0.00 0.00 26 1016.3
20260902123115 32 217 3.2 16.1 0.00 0.00 0.00 29 1016.5
20260902121558 32 227 3.2 20.9 0.00 0.00 0.00 28 1016.8
20260902120104 32 52 0.0 11.3 0.00 0.00 0.00 31 1017.0
20260902114546 31 117 1.6 8.0 0.00 0.00 0.00 32 1017.1
20260902113043 31 156 1.6 4.8 0.00 0.00 0.00 34 1017.3
20260902111551 30 259 0.0 3.2 0.00 0.00 0.00 34 1017.6
20260902110038 30 106 0.0 4.8 0.00 0.00 0.00 38 1017.8
20260902104536 29 138 1.6 6.4 0.00 0.00 0.00 40 1017.9
20260902103033 28 257 1.6 4.8 0.00 0.00 0.00 43 1017.9
20260902101535 27 146 1.6 6.4 0.00 0.00 0.00 43 1018.1
20260902100029 26 329 0.0 8.0 0.00 0.00 0.00 44 1018.0
20260902094528 26 313 1.6 3.2 0.00 0.00 0.00 43 1018.0
20260902093025 26 98 0.0 4.8 0.00 0.00 0.00 46 1017.9
20260902091524 26 94 0.0 3.2 0.00 0.00 0.00 48 1017.9
20260902090019 25 113 1.6 4.8 0.00 0.00 0.00 47 1017.8
20260902084517 24 258 0.0 6.4 0.00 0.00 0.00 50 1017.7
20260902083014 23 102 0.0 3.2 0.00 0.00 0.00 52 1017.6
20260902081512 23 63 0.0 6.4 0.00 0.00 0.00 51 1017.6
20260902080011 22 98 0.0 4.8 0.00 0.00 0.00 47 1017.6
20260902074510 22 98 0.0 1.6 0.00 0.00 0.00 46 1017.5
20260902073008 21 97 1.6 4.8 0.00 0.00 0.00 46 1017.4
20260902071511 20 121 0.0 3.2 0.00 0.00 0.00 46 1017.3
20260902070006 18 87 0.0 3.2 0.00 0.00 0.00 51 1017.0
20260902064503 18 90 0.0 1.6 0.00 0.00 0.00 50 1016.8
20260902063002 18 109 0.0 1.6 0.00 0.00 0.00 50 1016.7
20260902061558 -17 0.0 0.0 0.00 0.00 0.00 1016.5
20260902060053 -17 0.0 0.0 0.00 0.00 0.00 1016.4
20260902054550 -17 0.0 0.0 0.00 0.00 0.00 1016.4
20260902053045 -17 0.0 0.0 0.00 0.00 0.00 1016.3
20260902051545 -17 5 0.0 0.0 0.00 0.00 0.00 1016.1
20260902050056 16 7 0.0 0.0 0.00 0.00 0.00 51 1015.8
20260902044539 17 7 0.0 0.0 0.00 0.00 0.00 51 1015.5
20260902043044 17 7 0.0 1.6 0.00 0.00 0.00 52 1015.6
20260902041536 16 236 0.0 0.0 0.00 0.00 0.00 53 1015.6
20260902040035 17 228 0.0 0.0 0.00 0.00 0.00 51 1015.6
20260902034529 17 228 0.0 0.0 0.00 0.00 0.00 50 1015.6
20260902033027 18 228 0.0 1.6 0.00 0.00 0.00 46 1015.7
20260902031524 18 162 0.0 1.6 0.00 0.00 0.00 46 1015.7
20260902030020 20 165 0.0 3.2 0.00 0.00 0.00 44 1015.5
20260902024520 20 155 0.0 0.0 0.00 0.00 0.00 43 1015.4
20260902023019 20 49 0.0 0.0 0.00 0.00 0.00 43 1015.2
20260902021518 20 49 0.0 0.0 0.00 0.00 0.00 42 1015.2
20260902020017 20 49 0.0 0.0 0.00 0.00 0.00 41 1015.3
20260902014518 21 49 0.0 0.0 0.00 0.00 0.00 40 1015.2
20260902013016 20 49 0.0 0.0 0.00 0.00 0.00 41 1015.2
20260902011517 20 49 0.0 0.0 0.00 0.00 0.00 40 1015.2
20260902010012 20 49 0.0 3.2 0.00 0.00 0.00 40 1015.3
20260902004513 20 60 0.0 0.0 0.00 0.00 0.00 40 1015.3
20260902003021 20 76 0.0 0.0 0.00 0.00 0.00 40 1015.4
20260902001511 19 76 0.0 1.6 0.00 0.00 0.00 44 1015.3
20260902000008 20 123 0.0 1.6 0.00 0.00 0.00 43 1015.3
20260901234506 21 123 0.0 4.8 0.00 0.00 0.00 39 1015.4
20260901233004 20 224 0.0 0.0 0.00 0.00 0.00 42 1015.3
20260901231504 21 224 0.0 1.6 0.00 0.00 0.00 43 1015.1
20260901230107 21 224 0.0 1.6 0.00 0.00 0.00 41 1015.1
20260901230001 21 224 0.0 1.6 0.00 0.00 0.00 41 1015.1
20260901224658 21 224 0.0 1.6 0.00 0.00 0.00 40 1014.9
20260901223104 22 206 0.0 0.0 0.00 0.00 0.00 37 1014.7
20260901221551 22 194 0.0 0.0 0.00 0.00 0.00 36 1014.7
20260901220106 23 260 0.0 0.0 0.00 0.00 0.00 35 1014.6
20260901214547 24 260 0.0 0.0 0.00 0.00 0.00 33 1014.5
20260901213050 25 260 0.0 0.0 0.00 0.00 0.00 33 1014.5
20260901211546 25 263 0.0 1.6 0.00 0.00 0.00 32 1014.4
20260901210045 25 265 0.0 3.2 0.00 0.00 0.00 31 1014.3
20260901204544 25 290 0.0 3.2 0.00 0.00 0.00 31 1014.3
20260901203046 26 268 0.0 4.8 0.00 0.00 0.00 31 1014.1
20260901201552 26 270 0.0 1.6 0.00 0.00 0.00 30 1013.8
20260901200044 27 278 0.0 1.6 0.00 0.00 0.00 29 1013.5
20260901194542 27 266 0.0 1.6 0.00 0.00 0.00 28 1013.3
20260901193043 27 265 0.0 1.6 0.00 0.00 0.00 27 1013.0
20260901191602 28 262 0.0 1.6 0.00 0.00 0.00 27 1012.9
20260901190042 28 297 0.0 3.2 0.00 0.00 0.00 26 1012.8
20260901184605 29 278 0.0 6.4 0.00 0.00 0.00 24 1012.6
20260901183042 30 281 1.6 6.4 0.00 0.00 0.00 24 1012.4
20260901181551 31 281 3.2 8.0 0.00 0.00 0.00 25 1012.4
20260901180037 30 263 0.0 4.8 0.00 0.00 0.00 25 1012.3
20260901174551 31 281 1.6 11.3 0.00 0.00 0.00 24 1012.1
20260901173036 32 275 0.0 12.9 0.00 0.00 0.00 23 1012.2
20260901171540 32 238 4.8 14.5 0.00 0.00 0.00 22 1012.1
20260901170034 32 280 3.2 14.5 0.00 0.00 0.00 23 1012.0
20260901164539 31 305 4.8 12.9 0.00 0.00 0.00 23 1012.0
20260901163032 32 259 0.0 11.3 0.00 0.00 0.00 26 1012.1
20260901161532 32 284 3.2 11.3 0.00 0.00 0.00 25 1012.1
20260901160042 33 238 1.6 14.5 0.00 0.00 0.00 26 1012.1
20260901154533 33 273 3.2 17.7 0.00 0.00 0.00 26 1012.2
20260901153027 32 225 1.6 14.5 0.00 0.00 0.00 27 1012.2
20260901151528 32 334 3.2 12.9 0.00 0.00 0.00 26 1012.3
20260901150027 32 232 6.4 16.1 0.00 0.00 0.00 27 1012.5
20260901144523 32 264 6.4 19.3 0.00 0.00 0.00 26 1012.5
20260901143138 32 200 4.8 11.3 0.00 0.00 0.00 29 1012.5
20260901141518 32 259 0.0 8.0 0.00 0.00 0.00 29 1012.7
20260901140015 32 247 3.2 9.7 0.00 0.00 0.00 30 1012.9
20260901134519 31 255 3.2 14.5 0.00 0.00 0.00 32 1013.1
20260901133011 31 269 8.0 14.5 0.00 0.00 0.00 31 1013.2
20260901131513 31 224 1.6 8.0 0.00 0.00 0.00 34 1013.3
20260901130008 31 316 3.2 20.9 0.00 0.00 0.00 34 1013.5